User: anonymous   Login
Location: Unspecified
(0.0000°N, 0.0000°E)
Time: 00:21:26
(UTC+00:00)
Language:

APRIZESAT 4 - Orbit

View from above orbital plane
View from above orbital plane
View from above satellite
View from above satellite

Ground track
Ground track

The orbit data is extracted from the following two-line orbital elements,

1 35684U 09041D   21332.44077404  .00000184  00000-0  32066-4 0  9995
2 35684  98.3140 334.2051 0045723 276.5928  83.0079 14.79434504665343
Epoch (UTC): 28 November 2021 10:34:42
Eccentricity: 0.0045723
inclination: 98.3140°
perigee height: 599 km
apogee height: 663 km
right ascension of ascending node: 334.2051°
argument of perigee: 276.5928°
revolutions per day: 14.79434504
mean anomaly at epoch: 83.0079°
orbit number at epoch: 66534

The dashed part of the orbit path shows where the satellite is in the earth's shadow,  

DLR